Location: Hackberry
(29.5783°N, 96.8797°W)
Time: 02:46:02
(UTC+00:00)

Explorer 11/Cluster Stage 4 - Pass Details

Date: 09 November 2024
Orbit: 464 x 1202 km, 28.8° (Epoch: 03 December)

Event Time Altitude Azimuth Distance (km) Brightness Sun altitude
Exits shadow 10:59:26 19° 185° (S) 1,328 7.7 -23.7°
Maximum altitude 11:00:39 22° 160° (SSE) 1,192 7.8 -23.4°
Drops below altitude 10° 11:03:38 10° 108° (ESE) 1,680 9.4 -22.8°
Sets 11:06:04 0° 92° (E) 2,510 10.7 -22.3°
